User: anonymous   Login
Location: Houston
(29.7631°N, 95.3631°W)
Time: 03:06:40
(UTC-05:00)
Language:

AO-85 - Orbit

View from above orbital plane
View from above orbital plane
View from above satellite
View from above satellite

Ground track
Ground track

The orbit data is extracted from the following two-line orbital elements,

1 40967U 15058D   19143.50470002  .00000125  00000-0  31507-4 0 06974
2 40967 064.7775 237.8946 0203146 211.0145 147.8848 14.75940094103875
Epoch (UTC): 23 May 2019 12:06:46
Eccentricity: 0.0203146
inclination: 64.7775°
perigee height: 499 km
apogee height: 785 km
right ascension of ascending node: 237.8946°
argument of perigee: 211.0145°
revolutions per day: 14.75940094
mean anomaly at epoch: 147.8848°
orbit number at epoch: 10387

The dashed part of the orbit path shows where the satellite is in the earth's shadow,  

DLR